Waarnemingen

Advertentie
Mijn weer
St-Auban-Sur-Durance, Frankrijk (7588): temperatuur & dauwpunt: 20.03.2017 00:00:00 - 26.03.2017 00:00:00 (CET)St-Auban-Sur-Durance, Frankrijk (7588): temperatuur 5cm: 20.03.2017 00:00:00 - 26.03.2017 00:00:00 (CET)St-Auban-Sur-Durance, Frankrijk (7588): temperatuur -20cm: 20.03.2017 00:00:00 - 26.03.2017 00:00:00 (CET)St-Auban-Sur-Durance, Frankrijk (7588): windsnelheid & windstoten: 20.03.2017 00:00:00 - 26.03.2017 00:00:00 (CET)St-Auban-Sur-Durance, Frankrijk (7588): windrichting: 20.03.2017 00:00:00 - 26.03.2017 00:00:00 (CET)St-Auban-Sur-Durance, Frankrijk (7588): luchtdruk: 20.03.2017 00:00:00 - 26.03.2017 00:00:00 (CET)St-Auban-Sur-Durance, Frankrijk (7588): zicht: 20.03.2017 00:00:00 - 26.03.2017 00:00:00 (CET)St-Auban-Sur-Durance, Frankrijk (7588): Zonneschijnduur: 20.03.2017 00:00:00 - 26.03.2017 00:00:00 (CET)St-Auban-Sur-Durance, Frankrijk (7588): neerslag: 20.03.2017 00:00:00 - 26.03.2017 00:00:00 (CET)
Datum & Tijd tt [°C] td [°C] tt 5cm [°C] tt -20cm [°C] ff [km/u] ff [kn] fx [km/u] fx [kn] dd ppp [hPa] vv [km] sd [min] rr [mm]
26.03.2017 00:00:00 4,6 2,6 4,4 10,2 5 3 16 9 NO 1022,6 20 0 0,0
25.03.2017 23:00:00 4,7 2,7 4,1 10,3 5 3 21 11 NO 1021,9 20 0 0,0
25.03.2017 22:00:00 4,4 2,6 4,2 10,4 10 5 19 11 NNO 1021,9 20 0 0,0
25.03.2017 21:00:00 4,7 2,9 4,5 10,5 7 4 17 9 O 1022,0 20 0 0,0
25.03.2017 20:00:00 4,6 2,9 4,3 10,6 6 4 21 12 ONO 1021,3 20 0 0,0
25.03.2017 19:00:00 4,7 3,0 4,6 10,6 10 6 23 12 NO 1021,1 20 0 0,2
25.03.2017 18:00:00 5,1 4,1 4,4 10,7 7 4 22 12 ONO 1021,1 20 0 1,2
25.03.2017 17:00:00 4,4 3,2 4,6 10,8 13 7 25 14 O 1021,6 12 0 1,0
25.03.2017 16:00:00 4,7 3,0 4,8 10,9 12 6 25 13 O 1021,8 16 0 2,2
25.03.2017 15:00:00 5,8 4,3 5,9 11,0 7 4 21 11 ONO 1022,1 19 0 3,2
25.03.2017 14:00:00 6,3 4,0 6,0 11,0 16 9 50 27 Z 1022,2 17 0 4,5
25.03.2017 13:00:00 7,7 6,3 7,6 11,0 26 14 72 39 Z 1021,8 12 0 4,6
25.03.2017 12:00:00 11,6 7,5 11,8 10,9 43 23 72 39 Z 1018,3 20 0 0,0
25.03.2017 11:00:00 15,9 4,3 15,5 10,9 16 9 57 31 ZZO 1016,0 20 0 0,0
25.03.2017 10:00:00 17,1 2,7 16,5 10,9 27 15 61 33 ZO 1015,2 20 15 0,0
25.03.2017 09:00:00 16,9 2,1 16,2 10,9 26 14 49 26 OZO 1015,1 20 32 0,0
25.03.2017 08:00:00 16,8 2,0 14,4 11,0 27 14 56 31 OZO 1014,6 20 9 0,0
25.03.2017 07:00:00 16,1 1,8 12,8 11,1 10 5 32 18 OZO 1014,5 20 7 0,0
25.03.2017 06:00:00 15,4 1,5 10,5 11,2 9 5 42 23 OZO 1014,5 20 0 0,0
25.03.2017 05:00:00 13,7 2,6 8,3 11,3 9 5 26 14 NO 1015,4 20 0 0,0
25.03.2017 04:00:00 11,1 3,4 7,9 11,4 6 4 14 8 OZO 1016,9 20 0 0,0
25.03.2017 03:00:00 10,3 3,6 8,0 11,5 10 5 18 10 N 1017,5 20 0 0,0
25.03.2017 02:00:00 10,6 3,4 7,8 11,7 6 4 30 16 NNW 1018,2 20 0 0,0
25.03.2017 01:00:00 8,7 6,3 6,6 11,7 12 6 19 11 NNO 1019,1 20 0 0,0
25.03.2017 00:00:00 9,9 6,2 7,6 11,8 7 4 19 10 NNW 1018,4 20 0 0,0
24.03.2017 23:00:00 11,0 6,5 9,3 11,9 10 5 26 14 NNO 1018,0 20 0 0,0
24.03.2017 22:00:00 11,6 6,9 10,2 11,9 7 4 11 6 NNO 1018,5 20 0 0,0
24.03.2017 21:00:00 11,5 7,8 10,7 11,9 6 3 16 9 N 1018,5 20 0 0,0
24.03.2017 20:00:00 11,8 7,9 11,2 12,0 11 6 24 13 NNO 1018,3 20 0 0,0
24.03.2017 19:00:00 11,9 8,2 11,5 11,9 9 5 21 11 NO 1018,2 20 0 0,0
24.03.2017 18:00:00 12,6 8,5 12,7 11,9 11 6 24 13 NNO 1018,3 20 0 0,0
24.03.2017 17:00:00 12,6 8,3 13,2 11,9 18 10 24 13 N 1018,2 20 0 0,0
24.03.2017 16:00:00 14,5 6,8 14,2 11,9 10 6 24 13 NO 1017,8 20 0 0,0
24.03.2017 15:00:00 14,1 7,4 13,5 11,8 9 5 22 12 NO 1017,8 20 0 0,0
24.03.2017 14:00:00 12,9 7,8 13,5 11,7 10 5 24 13 NNO 1017,8 20 0 0,0
24.03.2017 13:00:00 12,7 8,4 11,7 11,7 16 8 20 11 N 1017,6 20 0 0,0
24.03.2017 12:00:00 12,1 8,0 11,0 11,7 6 3 29 16 NO 1018,3 20 0 0,0
24.03.2017 11:00:00 10,3 9,1 10,1 11,7 3 1 19 10 N 1018,7 18 0 0,0
24.03.2017 10:00:00 9,6 7,9 9,1 11,7 10 5 18 10 N 1018,1 20 0 0,2
24.03.2017 09:00:00 9,0 8,1 9,0 11,8 4 2 10 5 NO 1018,6 20 0 0,0
24.03.2017 08:00:00 8,7 7,8 8,4 11,8 3 2 8 4 WNW 1018,2 20 0 0,0
24.03.2017 07:00:00 8,6 7,4 8,1 11,9 4 2 13 7 NNO 1018,1 20 0 0,0
24.03.2017 06:00:00 8,5 7,0 8,1 12,0 7 4 12 7 NW 1017,8 18 0 0,4
24.03.2017 05:00:00 8,9 6,3 8,5 12,1 5 3 14 8 OZO 1017,2 20 0 0,0
24.03.2017 04:00:00 10,1 5,1 9,0 12,2 5 3 29 15 OZO 1017,2 20 0 0,0
24.03.2017 03:00:00 10,4 5,2 7,7 12,3 13 7 29 16 O 1017,3 20 0 0,0
24.03.2017 02:00:00 7,8 6,7 7,8 12,4 4 2 7 4 W 1018,4 20 0 0,0
24.03.2017 01:00:00 8,1 6,6 7,7 12,5 0 0 14 7 N 1018,8 20 0 1,0
24.03.2017 00:00:00 9,1 6,2 8,1 12,5 6 4 14 8 OZO 1018,2 13 0 2,3
23.03.2017 23:00:00 9,8 7,9 9,1 12,6 5 3 29 16 OZO 1017,6 4,8 0 2,2
23.03.2017 22:00:00 9,6 7,9 8,8 12,7 15 8 34 18 ZZW 1016,4 16 0 1,0
23.03.2017 21:00:00 9,0 7,8 8,8 12,8 8 4 11 6 NW 1015,5 16 0 1,2
23.03.2017 20:00:00 10,7 6,8 9,0 12,9 8 5 39 21 ZO 1015,0 20 0 0,8
23.03.2017 19:00:00 12,9 5,8 12,2 12,9 16 9 51 28 ZZO 1013,7 20 0 0,0
23.03.2017 18:00:00 13,3 6,6 13,2 13,0 16 9 36 19 ZZO 1013,4 20 0 0,0
23.03.2017 17:00:00 13,4 6,9 12,8 13,0 20 11 54 29 ZZO 1012,7 20 1 0,0
23.03.2017 16:00:00 12,1 6,8 11,5 12,9 13 7 24 13 O 1012,9 20 0 0,0
23.03.2017 15:00:00 12,3 7,6 10,3 12,9 17 9 50 27 ZZO 1012,6 20 0 0,6
23.03.2017 14:00:00 13,5 6,6 13,5 12,8 20 11 52 28 ZZO 1011,6 20 5 0,0
23.03.2017 13:00:00 13,6 6,0 12,6 12,8 9 5 48 26 OZO 1012,2 20 1 0,0
23.03.2017 12:00:00 13,7 6,5 12,2 12,7 10 6 28 15 O 1012,1 20 8 0,0
23.03.2017 11:00:00 11,9 7,8 11,8 12,7 8 4 16 9 WZW 1012,3 20 0 0,0
23.03.2017 10:00:00 11,0 9,3 12,6 12,7 2 1 7 4 ZO 1012,3 17 19 0,0
23.03.2017 09:00:00 9,7 8,9 9,8 12,8 0 0 6 3 N 1012,6 10 4 0,0
23.03.2017 08:00:00 9,0 8,2 8,4 12,9 2 1 10 5 ZW 1012,9 13 3 0,4
23.03.2017 07:00:00 8,5 7,7 8,5 13,0 0 0 9 5 N 1012,7 4,4 0 0,5
23.03.2017 06:00:00 8,6 7,8 8,5 13,1 5 3 13 7 ONO 1012,4 5 0 3,2
23.03.2017 05:00:00 8,9 7,8 8,5 13,2 3 1 17 9 O 1011,8 8 0 1,2
23.03.2017 04:00:00 8,9 7,5 8,6 13,3 16 8 18 10 WZW 1011,9 12 0 1,0
23.03.2017 03:00:00 9,4 7,0 8,4 13,4 6 3 14 8 WNW 1012,0 19 0 0,4
23.03.2017 02:00:00 10,5 5,9 9,9 13,5 11 6 20 11 ZW 1012,6 20 0 0,0
23.03.2017 01:00:00 9,8 6,0 9,8 13,6 5 3 23 12 NW 1013,1 20 0 0,0
23.03.2017 00:00:00 10,1 6,1 8,5 13,7 13 7 27 15 ZZO 1013,6 20 0 0,0
22.03.2017 23:00:00 9,9 6,4 9,2 13,8 2 1 19 10 ZW 1013,3 20 0 0,0
22.03.2017 22:00:00 10,4 6,9 9,9 13,9 8 5 23 12 ZZW 1013,1 20 0 0,0
22.03.2017 21:00:00 11,1 6,6 10,9 13,9 18 10 26 14 ZW 1012,8 20 0 0,0
22.03.2017 20:00:00 12,0 6,5 12,0 14,0 13 7 24 13 ZZW 1011,9 20 0 0,0
22.03.2017 19:00:00 12,4 6,2 12,3 13,9 16 9 27 15 Z 1011,3 20 0 0,0
22.03.2017 18:00:00 13,3 5,0 13,7 13,9 18 10 30 16 ZZW 1010,8 20 0 0,0
22.03.2017 17:00:00 14,0 3,4 14,6 13,8 23 12 42 23 ZZW 1010,4 20 5 0,0
22.03.2017 16:00:00 15,2 4,3 17,2 13,6 24 13 38 21 Z 1009,8 20 1 0,0
22.03.2017 15:00:00 15,5 3,0 17,5 13,4 22 12 37 20 Z 1009,7 20 22 0,0
22.03.2017 14:00:00 16,8 3,5 20,7 13,1 24 13 39 21 ZZW 1009,4 20 60 0,0
22.03.2017 13:00:00 16,4 5,9 22,0 12,9 21 11 34 19 ZZW 1009,8 20 60 0,0
22.03.2017 12:00:00 15,9 4,3 21,0 12,7 19 10 32 18 ZZW 1010,0 20 60 0,0
22.03.2017 11:00:00 15,0 6,5 20,5 12,7 20 11 28 15 ZW 1010,4 20 60 0,0
22.03.2017 10:00:00 13,5 7,3 18,9 12,7 6 3 11 6 ZW 1010,8 20 60 0,0
22.03.2017 09:00:00 11,8 6,9 11,1 12,8 0 0 8 4 N 1011,2 20 57 0,0
22.03.2017 08:00:00 8,7 6,8 7,0 12,9 3 2 10 5 ZZW 1011,7 19 9 0,0
22.03.2017 07:00:00 7,0 5,8 6,3 13,0 3 1 9 5 ONO 1011,7 20 0 0,0
22.03.2017 06:00:00 7,1 5,7 6,8 13,2 5 3 8 5 OZO 1011,7 20 0 0,0
22.03.2017 05:00:00 7,5 6,0 7,4 13,3 3 2 8 4 O 1011,6 20 0 0,0
22.03.2017 04:00:00 7,4 5,7 7,4 13,4 0 0 9 5 N 1011,6 20 0 0,0
22.03.2017 03:00:00 7,8 6,3 6,5 13,6 4 2 8 5 Z 1011,6 20 0 0,0
22.03.2017 02:00:00 7,8 5,8 6,9 13,7 4 2 12 6 N 1011,5 20 0 0,0
22.03.2017 01:00:00 8,2 6,0 7,3 13,8 4 2 7 4 OZO 1012,0 20 0 0,0
22.03.2017 00:00:00 8,7 6,1 8,0 14,0 3 1 10 5 ONO 1012,8 20 0 0,0
21.03.2017 23:00:00 9,3 6,4 8,6 14,1 8 5 13 7 W 1012,6 20 0 0,0
21.03.2017 22:00:00 10,4 6,7 9,4 14,2 5 3 9 5 WZW 1012,1 20 0 0,0
21.03.2017 21:00:00 11,3 6,8 10,7 14,2 6 3 13 7 W 1011,7 20 0 0,0
21.03.2017 20:00:00 13,1 6,9 12,2 14,3 8 5 23 12 ZZW 1010,8 20 0 0,0
21.03.2017 19:00:00 14,3 7,3 13,6 14,2 13 7 23 12 ZZW 1010,1 20 0 0,0
21.03.2017 18:00:00 15,7 7,5 15,8 14,1 16 8 27 15 ZW 1009,5 20 0 0,0
21.03.2017 17:00:00 16,6 6,1 18,0 13,9 16 9 27 15 ZZW 1009,2 20 29 0,0
21.03.2017 16:00:00 17,1 6,6 21,4 13,6 13 7 25 14 ZW 1009,2 20 60 0,0
21.03.2017 15:00:00 17,5 7,5 22,2 13,4 16 9 29 15 ZW 1009,5 20 60 0,0
21.03.2017 14:00:00 17,0 7,3 19,8 13,1 13 7 26 14 WZW 1010,3 20 54 0,0
21.03.2017 13:00:00 16,3 8,0 17,9 13,0 15 8 27 14 ZZW 1011,2 20 50 0,0
21.03.2017 12:00:00 14,6 8,1 16,7 12,9 16 9 29 16 ZW 1012,0 20 26 0,0
21.03.2017 11:00:00 13,6 8,4 15,2 12,8 9 5 16 8 ZW 1012,5 19 7 0,0
21.03.2017 10:00:00 11,4 7,9 12,0 12,8 3 1 10 6 N 1013,1 19 0 0,0
21.03.2017 09:00:00 10,3 7,5 11,2 12,9 5 3 18 10 N 1013,1 19 2 0,0
21.03.2017 08:00:00 9,7 7,6 9,6 13,0 10 6 16 9 N 1012,9 15 0 0,0
21.03.2017 07:00:00 9,6 7,5 9,9 13,1 8 4 12 7 N 1012,7 12 0 0,0
21.03.2017 06:00:00 10,0 8,6 10,2 13,2 3 1 16 8 NNW 1012,6 6 0 0,0
21.03.2017 05:00:00 10,2 8,8 10,5 13,2 10 5 14 8 WZW 1012,6 7 0 0,0
21.03.2017 04:00:00 10,4 8,8 10,7 13,3 3 2 10 5 W 1012,0 6 0 0,0
21.03.2017 03:00:00 10,4 9,0 10,7 13,4 7 4 10 6 WZW 1012,6 6 0 0,0
21.03.2017 02:00:00 10,6 9,2 10,8 13,4 3 2 16 9 WZW 1012,9 5 0 0,0
21.03.2017 01:00:00 10,9 9,3 11,2 13,5 11 6 19 10 WZW 1013,4 6 0 0,0
21.03.2017 00:00:00 11,4 9,5 11,7 13,6 14 7 19 10 WZW 1013,6 7 0 0,0
20.03.2017 23:00:00 11,8 9,4 11,9 13,6 11 6 19 11 WZW 1013,6 8 0 0,0
20.03.2017 22:00:00 12,5 9,5 12,1 13,7 14 8 21 11 WZW 1013,6 11 0 0,0
20.03.2017 21:00:00 13,3 9,5 13,4 13,7 9 5 21 12 WZW 1013,3 16 0 0,0
20.03.2017 20:00:00 13,9 9,5 13,4 13,6 15 8 22 12 ZW 1012,6 20 0 0,0
20.03.2017 19:00:00 14,4 9,4 14,0 13,6 13 7 24 13 ZW 1012,1 20 21 0,0
20.03.2017 18:00:00 15,8 9,2 16,4 13,4 20 11 28 15 ZW 1011,5 20 60 0,0
20.03.2017 17:00:00 17,3 9,7 20,7 13,2 22 12 30 16 ZW 1010,9 20 60 0,0
20.03.2017 16:00:00 17,4 9,6 22,4 13,0 18 10 28 15 ZZW 1010,9 20 60 0,0
20.03.2017 15:00:00 16,9 9,6 21,8 12,7 20 11 29 16 ZZW 1011,2 20 60 0,0
20.03.2017 14:00:00 15,3 9,0 20,3 12,5 21 12 31 17 ZW 1012,1 20 60 0,0
20.03.2017 13:00:00 14,0 9,2 16,9 12,4 21 11 29 15 WZW 1013,0 20 52 0,0
20.03.2017 12:00:00 13,0 8,9 15,2 12,3 16 9 29 16 ZW 1013,8 20 24 0,0
20.03.2017 11:00:00 11,8 9,2 13,5 12,2 12 7 21 11 ZW 1014,5 20 2 0,0
20.03.2017 10:00:00 10,1 9,3 10,3 12,2 9 5 14 8 ZZW 1014,9 13 2 0,0
20.03.2017 09:00:00 8,7 8,2 9,4 12,3 3 1 9 5 ONO 1014,9 4,4 0 0,0
20.03.2017 08:00:00 8,5 8,1 8,9 12,4 7 4 10 5 NNO 1014,7 6 0 0,0
20.03.2017 07:00:00 8,4 8,0 8,7 12,4 4 2 11 6 O 1014,5 3,0 0 0,0
20.03.2017 06:00:00 8,6 8,2 9,0 12,5 5 3 9 5 OZO 1014,4 0,2 0 0,0
20.03.2017 05:00:00 8,9 8,4 9,2 12,6 4 2 16 8 WZW 1014,1 0,4 0 0,0
20.03.2017 04:00:00 9,1 8,6 9,3 12,7 11 6 24 13 WZW 1013,9 0,3 0 0,0
20.03.2017 03:00:00 9,0 8,4 8,8 12,8 16 8 21 11 WZW 1013,9 0,2 0 0,0
20.03.2017 02:00:00 9,2 8,3 7,2 13,0 12 7 19 10 W 1014,0 8 0 0,0
20.03.2017 01:00:00 8,8 7,2 7,0 13,1 4 2 8 4 ZW 1014,0 13 0 0,0
20.03.2017 00:00:00 10,3 8,6 7,9 13,3 5 3 9 5 W 1013,8 16 0 0,0

tt = temperatuur
td = dauwpunt
tt 5cm = temperatuur 5cm
tt -20cm = temperatuur -20cm
ff = windsnelheid
fx = windstoten
dd = windrichting
ppp = luchtdruk
vv = zicht
sd = Zonneschijnduur
rr = neerslag

Weerstations in de omgeving